Location: Karaa?a�
(36.7158°N, 30.4165°E)
Time: 01:17:08
(UTC+00:00)

HJ-1C - Pass Details

Date: 09 April 2020
Orbit: 431 x 447 km, 97.2° (Epoch: 25 May)

Event Time Altitude Azimuth Distance (km) Brightness Sun altitude
Rises 16:45:32 0° 153° (SSE) 2,425 6.7 -4.3°
Reaches altitude 10° 16:47:36 10° 146° (SE) 1,562 5.7 -4.7°
Maximum altitude 16:50:47 41° 75° (ENE) 661 3.9 -5.3°
Drops below altitude 10° 16:53:59 10° 4° (N) 1,580 6.3 -5.9°
Sets 16:56:05 0° 357° (N) 2,457 7.4 -6.4°
